Location: *
(10.4782°N, 67.2163°W)
Time: 00:44:51
(UTC+00:00)

Ariane H10-3 - Pass Details

Date: 23 May 2024
Orbit: 505 x 36370 km, 4.5° (Epoch: 15 June)

Event Time Altitude Azimuth Distance (km) Brightness Sun altitude
Exits shadow 09:13:26 18° 237° (WSW) 1,531 2.9 -12.8°
Maximum altitude 09:15:23 29° 188° (S) 977 2.3 -12.3°
Drops below altitude 10° 09:18:09 10° 122° (ESE) 1,729 4.3 -11.7°
Sets 09:20:33 0° 109° (ESE) 2,923 5.8 -11.2°
